Regional Weather Roundup
Issued by NWS Columbia, SC

Home | Current Version | Previous Version | Text Only | Print | Product List | Glossary On
Versions: 1 2 3 4 5 6 7 8 9 10 11 12 13 14 15 16 17 18 19 20 21 22 23 24 25 26 27 28
000
ASUS42 KCAE 250910
RWRCAE
REGIONAL WEATHER ROUNDUP
NATIONAL WEATHER SERVICE COLUMBIA SC
500 AM EDT SAT OCT 25 2014

NOTE: "FAIR" INDICATES FEW OR NO CLOUDS BELOW 12,000 FEET WITH NO
SIGNIFICANT WEATHER AND/OR OBSTRUCTIONS TO VISIBILITY.

NOT ALL STATIONS ARE QUALITY CONTROLLED BY THE NATIONAL
WEATHER SERVICE. USE DATA WITH CAUTION...ESPECIALLY
DEWPOINT OBSERVATIONS.

SCZ001>056-GAZ040-063>065-077-251000-
...UPSTATE SOUTH CAROLINA...

CITY           SKY/WX    TMP DP  RH WIND       PRES   REMARKS
ANDERSON       CLEAR     45  43  93 CALM      30.01S
LIBERTY        FAIR      40  40 100 MISG      30.01S
SPARTANBURG    FAIR      45  45 100 CALM      30.00F
CLEMSON        CLEAR     50  45  83 CALM      30.02S
GREENVILLE     CLEAR     55  39  54 N8        30.01F
GREENWOOD      CLEAR     44  42  93 CALM      30.02S
GREER          CLEAR     49  40  71 NW3       29.99F
ROCK HILL      CLEAR     39  39 100 CALM      30.01S
LAURENS        FAIR      45  45 100 CALM      30.01F


...CENTRAL SOUTH CAROLINA...

CITY           SKY/WX    TMP DP  RH WIND       PRES   REMARKS
COLUMBIA APT   CLEAR     44  40  85 W3        30.00S
COLUMBIA OWENS CLEAR     46  43  89 CALM      30.02R
DARLINGTON     CLEAR     41  36  81 CALM      30.00S
FLORENCE       CLEAR     49  44  83 NW3       29.98S
MCENTIRE ANGB  CLEAR     41  41  99 NW1       30.00S
ORANGEBURG     CLEAR     47  44  90 CALM      30.00R
SUMTER SHAW    CLEAR     48  48  97 NW1       29.98S
NEWBERRY       FAIR      43 N/A N/A N5        30.04R
AIKEN          FAIR      41  41 100 CALM      30.03S
BARNWELL       FAIR      43  41  93 CALM      30.01R
MANNING        FAIR      43 N/A N/A CALM      30.00R
CAMDEN         FAIR      41  37  87 CALM      30.01S
LANCASTER      HVY RAIN  39  39 100 CALM      30.01S
WINNSBORO      FAIR      45  45 100 N3        30.00S


...EASTERN AND COASTAL SOUTH CAROLINA...

CITY           SKY/WX    TMP DP  RH WIND       PRES   REMARKS
MYRTLE BEACH   CLEAR     50  46  87 NW3       29.97S
N MYRTLE BCH   CLEAR     46  46 100 CALM      29.97S
CONWAY         FAIR      43  43 100 CALM      29.98S
MARION         FAIR      45  45 100 CALM      29.98S FOG
FLORENCE       CLEAR     49  44  83 NW3       29.98S
DARLINGTON     CLEAR     41  36  81 CALM      30.00S
CHARLESTON APT CLEAR     51  48  89 CALM      29.98S
MOUNT PLEASANT FAIR      48  48 100 CALM      29.98S
WALTERBORO     SUNNY     45 N/A N/A CALM      29.99F
BEAUFORT       CLEAR     51  49  92 CALM      29.99R


...EASTERN GEORGIA...

CITY           SKY/WX    TMP DP  RH WIND       PRES   REMARKS
AUGUSTA BUSH F CLEAR     41  40  96 CALM      30.01R
AUGUSTA DANIEL CLEAR     52  48  86 N3        30.01S
THOMSON        CLEAR     43  43 100 CALM      30.05S
WASHINGTON     FAIR      46  46 100 CALM      30.01S
CLAXTON        FAIR      45  45 100 CALM      30.00S
SYLVANIA       SUNNY     48  47  97 CALM      30.00S
SAVANNAH       CLEAR     51  46  83 W3        30.00R


...SOUTHERN NORTH CAROLINA...

CITY           SKY/WX    TMP DP  RH WIND       PRES   REMARKS
CHARLOTTE      CLEAR     45  40  82 N6        30.01S
MONROE         CLEAR     42  39  89 CALM      30.00S
WADESBORO      SUNNY     39  38  96 CALM      30.00S
ROCKINGHAM     SUNNY     44  42  93 NW3       29.99R
RUTHERFORDTON  CLEAR     42  39  88 N3        30.02S
ASHEVILLE      CLEAR     42  37  82 CALM      30.06F

$$



USA.gov is the U.S. government's official web portal to all federal, state and local government web resources and services.